www.pogodaiklimat.ru

Погода и климат >> Архив погоды >> Иран >> Safi-Abad Dezful


ПОГОДА в Safi-Abad Dezful

  • Прогноз погоды в Safi-Abad Dezful
  • Монитор погоды в Safi-Abad Dezful
  • Климат города

АРХИВ ПОГОДЫ в Safi-Abad Dezful

Время (UTC), дата Ветер
(напр.,м/с)
 
Видим.   Явления Облачность Т
(С)
Тd
(С)
f
(%)
Тe
(С)
Тes
(С)
Комфортность P
(гПа)
Po
(гПа)
Тmin
(С)
Tmax
(С)
R
(мм)
R24
(мм)
S
(см)
18 12.11 В 3 8000 м дымка ясно +17.1 +17.0 99 +17 +17 1018.5 1008.7
21 12.11 штиль 0 8000 м дымка ясно +15.4 +15.4 100 +15 +15 1018.5 1008.8
00 13.11 штиль 0 10 км ясно +13.7 +13.7 100 +13 +13 1017.7 1008.0
03 13.11 штиль 0 7000 м дымка ясно +13.5 +13.5 100 +13 +13 1017.9 1008.1 +13.2
06 13.11 штиль 0 6000 м дымка ясно +18.3 +18.1 99 +19 +24 1018.9 1009.1
09 13.11 В 2 10 км 4/4 1200 м
[Cu med, cong]
+22.6 +19.0 80 +28 +34 душно 1017.4 1007.7
12 13.11 ЮВ 3 10 км 3/3 1200 м
[Sc diur, vesp]
+24.2 +14.7 55 +27 +28 жарко 1016.4 1006.6
15 13.11 В 4 10 км ясно +18.4 +15.3 82 +19 +19 1017.0 1007.1 +24.8
18 13.11 СВ 3 10 км ясно +16.0 +14.7 92 +15 +15 1016.6 1006.8
21 13.11 В 2 6000 м дымка ясно +16.0 +16.0 100 +16 +16 1016.6 1006.8
00 14.11 С 3 6000 м дымка ясно +13.6 +13.6 100 +12 +12 1014.6 1004.9
03 14.11 С 3 6000 м дымка 4/0
[Ac trans]
+13.0 +13.0 100 +11 +11 1014.7 1004.8 +12.5
06 14.11 штиль 0 4000 м дымка 9/5 1200 м
[Sc Ac und]
+16.0 +15.4 96 +16 +17 1015.6 1005.8
09 14.11 В 2 6000 м дымка 10/4 1200 м
[Sc Ac As]
+18.5 +17.5 94 +20 +21 1014.4 1004.6
12 14.11 ЮВ 5 8000 м дымка 10/6 1050 м
[Cb calv Ac As]
+19.6 +16.4 82 +22 +22 комфорт 1013.2 1003.4
15 14.11 СВ 4 6000 м дождь 10/6 1050 м
[Cb calv As op]
+16.3 +15.0 92 +16 +16 1015.6 1005.8 +20.4
18 14.11 ЮВ 5 10 км {дождь} 10/6 1050 м
[Cb calv As op]
+15.4 +13.2 87 +14 +14 1013.7 1003.8 6
21 14.11 СВ 5 7000 м слабый дождь 10/6 1050 м
[Cb calv As op]
+14.6 +13.2 91 +13 +13 1013.8 1004.3
00 15.11 штиль 0 10 км {дождь} 10/6 1050 м
[Cb calv As op]
+15.6 +14.9 96 +15 +15 1013.2 1003.4 9
03 15.11 В 1 10 км слабый дождь 10/6 1050 м
[Cb calv As op]
+16.3 +15.5 95 +17 +17 1015.6 1005.8 +14.2
06 15.11 С 4 8000 м слабый дождь 10/5 900 м
[Sc As op]
+16.1 +15.8 98 +15 +16 1017.4 1007.6 14
09 15.11 В 6 10 км {дождь} 10/4 1200 м
[Sc As op]
+18.1 +16.4 90 +18 +18 1016.5 1006.7
12 15.11 ЮВ 8 8000 м слабый дождь 10/4 1200 м
[Sc As op]
+18.6 +18.4 99 +19 +19 1015.3 1005.5 1
15 15.11 штиль 0 8000 м гроза, ливневой дождь 10/6 900 м
[Cb cap As op]
+17.3 +17.0 98 +17 +17 1017.3 1007.5 +19.0
18 15.11 штиль 0 10 км в посл. час дождь {гроза, ливн. осадки} 10/6 900 м
[Cb cap As op]
+17.0 +16.7 98 +17 +17 1016.7 1006.9 13
21 15.11 СВ 5 10 км 10/4 1200 м
[Sc As op]
+17.7 +17.3 98 +17 +17 1015.3 1005.5
00 16.11 В 8 10 км 10/3 1200 м
[Sc As op]
+17.6 +16.9 96 +17 +17 1012.7 1003.0
03 16.11 В 6 10 км 10/3 1200 м
[Sc As op]
+18.6 +16.4 87 +19 +19 1015.1 1005.3 +16.8
06 16.11 С 2 8000 м дымка {ливн. осадки, дождь} 8/4 1200 м
[Sc As op]
+19.3 +18.3 94 +22 +23 комфорт 1018.0 1008.2 3
09 16.11 В 3 10 км 4/4 1200 м
[Cu hum]
+23.9 +17.9 69 +28 +32 душно 1017.1 1007.5
12 16.11 В 2 10 км 4/4 1200 м
[Sc]
+24.9 +18.9 69 +30 +31 душно 1017.4 1007.7
15 16.11 СВ 3 10 км ясно +20.4 +18.9 91 +25 +25 комфорт 1018.9 1009.1 +25.0
18 16.11 В 2 10 км 3/3 1200 м
[Sc]
+19.0 +18.8 99 +21 +21 комфорт 1020.4 1010.7
21 16.11 С 2 10 км 3/3 1200 м
[Sc]
+17.3 +17.1 99 +18 +18 1020.2 1010.5
00 17.11 СВ 3 10 км ясно +16.0 +15.9 99 +15 +15 1019.8 1010.1
03 17.11 СВ 3 8000 м дымка ясно +15.6 +15.6 100 +15 +15 1020.6 1010.8 +15.3
06 17.11 СВ 3 10 км ясно +19.5 +17.5 88 +22 +25 комфорт 1021.6 1011.8
09 17.11 СВ 4 10 км ясно +23.8 +17.2 67 +28 +33 душно 1020.1 1010.4
12 17.11 В 6 10 км 1/1 1200 м
[Cb calv]
+24.5 +16.9 63 +28 +29 душно 1019.0 1009.3
15 17.11 В 4 10 км ясно +19.7 +18.5 93 +22 +22 комфорт 1019.7 1009.9 +24.7
18 17.11 В 4 10 км ясно +17.5 +17.2 98 +17 +17 1019.5 1009.7
21 17.11 СВ 2 10 км ясно +15.7 +15.4 98 +16 +16 1019.1 1009.8
00 18.11 штиль 0 10 км ясно +13.0 +12.8 99 +12 +12 1018.9 1009.1
03 18.11 штиль 0 100 м туман ясно +14.8 +14.8 100 +14 +14 1019.4 1009.6 +13.0
06 18.11 штиль 0 100 м туман ?/? +15.0 +15.0 100 +15 +15 1020.5 1010.7
09 18.11 ЮВ 3 3000 м дымка {туман} 5/0
[Ci fib]
+20.4 +17.4 83 +24 +30 комфорт 1020.4 1010.7
12 18.11 В 2 8000 м мгла 5/0
[Ci fib]
+23.2 +18.7 76 +29 +32 душно 1017.4 1007.6
15 18.11 штиль 0 8000 м дымка 3/0
[Ci fib]
+17.9 +17.7 99 +18 +18 1017.5 1007.7 +23.4
18 18.11 штиль 0 500 м туман ясно +15.4 +15.1 98 +15 +15 1018.2 1008.3
21 18.11 штиль 0 100 м туман ?/? +14.7 +14.7 100 +14 +14 1018.2 1008.3
00 19.11 В 1 100 м туман ?/? +14.6 +14.6 100 +15 +15 1017.5 1007.8
03 19.11 С 1 100 м туман ?/? +14.8 +14.5 98 +15 +15 1017.8 1008.1 +14.1
06 19.11 штиль 0 700 м туман 10/5 600 м
[St As op]
+16.0 +15.7 98 +16 +16 1019.7 1009.9
09 19.11 ЮВ 1 5000 м дымка {туман} 9/8 1050 м
[St Cs]
+20.0 +13.8 67 +23 +25 комфорт 1019.7 1009.9
12 19.11 В 3 5000 м дымка 10/4 1050 м
[Cb calv As op]
+20.4 +17.7 84 +24 +24 комфорт 1018.4 1008.6
15 19.11 штиль 0 5000 м дымка 9/4 1200 м
[Sc As trans]
+17.5 +15.2 86 +17 +17 1019.7 1009.9 +21.0

 

Местоположение метеостанции Safi-Abad Dezful (Иран): широта 32.27 долгота 48.42 высота над уровнем моря 83 м.

В архиве по умолчанию представлена погода в Safi-Abad Dezful за последнюю неделю. Архивные данные за месяц целиком и за предыдущие месяцы, начиная с января 2011 года, Вы можете получить, выбрав интересующий диапазон дат из раскрывающегося списка и нажав кнопку "Ввод!".


*Определитесь, кто Вы:
робот инопланетянин человек

Внимание! Время в таблицах - всемирное. Для получения местного времени необходимо прибавить поправку, которая в Safi-Abad Dezful равна 3.5 ч.

Смотрите также архив погоды в соседних городах и на ближайших метеорологических станциях:

Погода в Masjed-Soleyman (Иран) (86 км)
Погода в Ahwaz (Иран) (107 км)
Погода в Amarah (Ирак) (127 км)
Погода в Khorram Abad (Иран) (135 км)
Погода в Ali Al-Gharbi (Ирак) (161 км)
Погода в Ali-Goodarz (Иран) (172 км)
Погода в Basrah (Ирак) (199 км)
Погода в Basrah Airport (Ирак) (204 км)
Погода в Omidieh (Иран) (205 км)
Погода в Abadan (Иран) (212 км)

Пояснения к столбцам:

Ветер - указаны скорость ветра в м/с - средняя за 10 мин, порывы в срок и между сроками (в фигурных скобках) и направление, откуда дует ветер: С - северный, СВ - северо-восточный, В - восточный, ЮВ - юго-восточный, Ю - южный, ЮЗ - юго-западный, З - западный, СЗ - северо-западный.
Видимость - горизонтальная дальность видимости в метрах или километрах. При видимости от 1 до 10 км при отсутствии осадков обычно наблюдается дымка, при ухудшении видимости до 1 км и менее - туман. В сухую погоду видимость может ухудшаться дымом, пылью или мглою.
Явления - указаны атмосферные явления, наблюдавшиеся в срок или в последний час перед сроком; фигурными скобками обозначены явления, наблюдавшиеся между сроками (за 1-3 часа до срока); квадратными скобками обозначены град или гололедные отложения с указанием их диаметра в мм.
Облачность - указаны через наклонную черту общая и нижняя облачность в баллах и высота нижней границы облаков в метрах; квадратными скобками обозначены формы облаков: Ci - перистые, Cs - перисто-слоистые, Cc - перисто-кучевые, Ac - высококучевые, As - высокослоистые, Sc - слоисто-кучевые, Ns - слоисто-дождевые, Cu - кучевые, Cb - кучево-дождевые. Подробнее классификацию облаков см. в Атласе облаков (PDF).
T - Температура воздуха - температура, измеренная на высоте 2 м над землей.
Td - Температура точки росы - температура, при понижении до которой содержащийся в воздухе водяной пар достигнет насыщения.
f - Относительная влажность воздуха - влажноcть воздуха, измеренная на высоте 2 м над землей.
Te - Эффективная температура - температура, которую ощущает одетый по сезону человек в тени. Характеристика душности погоды. При расчете учитывается влияние влажности воздуха и скорости ветра на теплоощущения человека.
Tes - Эффективная температура на солнце - температура, которую ощущает человек, с поправкой на солнечный нагрев. Характеристика знойности погоды. Зависит от высоты солнца над горизонтом, облачности и скорости ветра. Ночью, в пасмурную погоду, а также при ветре 12 м/с и более поправка равна нулю.
P - Атмосферное давление - приведенное к уровню моря атмосферное давление.
Po - Атмосферное давление - измеренное на уровне метеостанции атмосферное давление.
Tmin - Минимальная температура - минимум температуры воздуха на высоте 2 м над землей.
Tmax - Максимальная температура - максимум температуры воздуха на высоте 2 м над землей.
R - Количество осадков - Количество выпавших осадков за период времени, мм. При наведении курсора мыши на число - период времени, за который выпало указанное количество осадков.
R24 - Количество осадков - Количество выпавших осадков за 24 часа, мм.
S - Снежный покров - Высота снежного покрова, см. При наведении курсора мыши на число - состояние снежного покрова и степень покрытия местности в баллах.